Terminal Aerodrome Forecast
Issued by NWS

Home | Current Version | Previous Version | Text Only | Print | Product List | Glossary On
Versions: 1 2 3 4 5 6 7 8 9 10 11 12 13 14 15 16 17 18 19 20 21 22 23 24 25 26 27 28 29 30 31 32 33 34 35 36 37 38 39 40 41 42 43 44 45 46 47
000
FTUS41 KCTP 300906 AAB
TAFJST
TAF AMD
KJST 300906Z 3009/0106 21005KT P6SM FEW040
     FM301500 20005KT P6SM SCT050
     FM301900 25005KT P6SM -SHRA VCTS BKN050CB
     FM010000 13004KT 6SM -SHRA BR OVC025=

USA.gov is the U.S. government's official web portal to all federal, state and local government web resources and services.